Terminal Aerodrome Forecast
Issued by NWS Memphis, TN

Home | Current Version | Previous Version | Text Only | Print | Product List | Glossary On
Versions: 1 2 3 4 5 6 7 8 9 10 11 12 13 14 15 16 17 18 19 20 21 22
000
FTUS44 KMEG 251704 AAD
TAFJBR
TAF AMD
KJBR 251704Z 2517/2612 18010KT P6SM OVC025
     FM260000 18010KT P6SM VCTS BKN050CB
      TEMPO 2603/2605 3SM TSRA BKN025CB
     FM260500 16010KT P6SM SHRA VCTS BKN025CB
     FM260800 18015G25KT P6SM -SHRA BKN015 OVC025=

USA.gov is the U.S. government's official web portal to all federal, state and local government web resources and services.